This demonstration page uses our WeatherBlox Daily Observations layout. Learn more.

Left ArrowRight Arrow

39.01783, -85.05884

Hourly Observations for November 14, 2021

Temp ( °F °C ) Dew Point ( °F °C ) Humidity (%) Winds ( mph kmh ) Pressure ( in mb ) Visibility ( mi km ) Precip ( " mm )
12:52 am 00:52 Cloudy 36 2.2 27 -2.8 70 70 SW 7 11 30.04 1017 10 16 N/A
1:27 am 01:27 Cloudy 35 1.7 27 -2.8 72 72 SSW 5 7 30.06 1018 10 16 N/A
1:52 am 01:52 Cloudy 36 2.2 27 -2.8 70 70 SSW 6 9 30.02 1017 10 16 N/A
2:52 am 02:52 Cloudy 36 2.2 27 -2.8 70 70 SSW 8 13 30.02 1017 10 16 N/A
3:52 am 03:52 Cloudy 36 2.2 27 -2.8 70 70 SW 12 19 30.01 1016 10 16 N/A
4:37 am 04:37 Cloudy with Light Snow 35 1.7 27 -2.8 72 72 SSW 10 17 30.03 1017 4 6 0.00 0.00
4:52 am 04:52 Cloudy with Light Snow 33 0.6 29 -1.7 85 85 SSW 6 9 30.00 1016 2 2 0.00 0.00
5:04 am 05:04 Cloudy with Light Snow 33 0.6 30 -1.1 89 89 SSW 10 17 30.01 1016 4 6 0.01 0.25
5:19 am 05:19 Cloudy with Mist and Fog 33 0.6 30 -1.1 89 89 SSW 9 15 30.01 1016 6 10 0.01 0.25
5:52 am 05:52 Cloudy with Light Snow 34 1.1 30 -1.1 85 85 SSW 8 13 29.99 1016 6 10 0.01 0.25
6:52 am 06:52 Mostly Cloudy 34 1.1 30 -1.1 85 85 SSW 10 17 29.94 1014 7 11 0.00 0.00
7:52 am 07:52 Cloudy 34 1.1 30 -1.1 85 85 S 12 19 29.90 1013 7 11 N/A
8:52 am 08:52 Cloudy 35 1.7 31 -0.6 85 85 SSW 12 19 29.89 1012 8 13 N/A
9:52 am 09:52 Cloudy 37 2.8 31 -0.6 79 79 SSW 13 20 29.88 1012 9 14 0.00 0.00
10:05 am 10:05 Cloudy with Light Snow 37 2.8 31 -0.6 79 79 SSW 10 17 29.91 1013 4 6 0.00 0.00
10:19 am 10:19 Cloudy with Light Snow 36 2.2 32 undefined 86 86 SSW 12 19 29.90 1012 6 10 0.00 0.00
10:22 am 10:22 Cloudy with Light Snow 36 2.2 32 undefined 86 86 SSW 12 19 29.89 1012 5 8 0.00 0.00
10:25 am 10:25 Cloudy with Light Snow 36 2.2 32 undefined 86 86 SSW 13 20 29.89 1012 3 4 0.00 0.00
10:52 am 10:52 Cloudy with Light Snow 35 1.7 32 undefined 89 89 S 14 22 29.84 1011 3 4 0.03 0.76
10:55 am 10:55 Cloudy with Light Snow 35 1.7 32 undefined 89 89 S 15 24 29.87 1011 1 2 0.00 0.00
11:28 am 11:28 Cloudy with Light Snow 35 1.7 32 undefined 89 89 S 13 20 29.86 1011 3 4 0.03 0.76
11:52 am 11:52 Cloudy with Light Rain 36 2.2 33 0.6 89 89 SSW 10 17 29.82 1010 3 4 0.05 1.27
12:52 pm 12:52 Cloudy with Light Rain 37 2.8 34 1.1 89 89 SSW 12 19 29.78 1009 3 4 0.03 0.76
1:52 pm 13:52 Cloudy with Mist and Fog 38 3.3 35 1.7 89 89 SW 13 20 29.77 1008 6 10 0.00 0.00
2:07 pm 14:07 Cloudy with Light Rain 39 3.9 35 1.7 86 86 SW 12 19 29.79 1009 2 3 0.00 0.00
2:52 pm 14:52 Cloudy with Light Rain 39 3.9 36 2.2 89 89 SW 14 22 29.76 1008 2 3 0.00 0.00
3:27 pm 15:27 Cloudy with Rain 40 4.4 37 2.8 89 89 SW 10 17 29.79 1009 2 3 0.00 0.00
3:52 pm 15:52 Cloudy with Rain 40 4.4 37 2.8 89 89 W 13 20 29.78 1009 2 3 0.06 1.52
4:19 pm 16:19 Cloudy with Light Rain 40 4.4 35 1.7 83 83 W 24 39 29.83 1010 2 3 0.03 0.76
4:21 pm 16:21 Cloudy with Light Rain 40 4.4 35 1.7 83 83 WNW 21 33 29.83 1010 2 3 0.03 0.76
4:52 pm 16:52 Cloudy with Light Rain 36 2.2 33 0.6 89 89 WNW 22 35 29.85 1011 2 3 0.05 1.27
5:48 pm 17:48 Cloudy 36 2 28 -2 75 75 W 17 28 29.92 1013 2 3 0.00 0.00
5:52 pm 17:52 Cloudy 35 1.7 29 -1.7 78 78 W 17 28 29.89 1012 2 3 0.00 0.00
5:55 pm 17:55 Cloudy 35 1.7 29 -1.7 78 78 W 16 26 29.92 1013 10 16 N/A
6:52 pm 18:52 Cloudy 35 1.7 28 -2.2 76 76 W 13 20 29.92 1013 10 16 N/A
7:52 pm 19:52 Cloudy 35 1.7 27 -2.8 72 72 W 14 22 29.93 1014 10 16 N/A
8:52 pm 20:52 Cloudy 35 1.7 27 -2.8 72 72 W 15 24 29.96 1015 10 16 N/A
9:52 pm 21:52 Cloudy 35 1.7 26 -3.3 70 70 W 12 19 29.98 1015 10 16 N/A
10:52 pm 22:52 Cloudy 35 1.7 25 -3.9 67 67 W 14 22 30.00 1016 10 16 N/A
11:52 pm 23:52 Mostly Cloudy 34 1.1 24 -4.4 67 67 W 13 20 30.02 1017 10 16 N/A

Powered by AerisWeather